Tracking 35274 objects as of 12-Sep-2026
HD Live streaming from Space Station
objects crossing your sky now

NOAA 17 DEB

Track NOAA 17 DEB now!
10-day predictions


NORAD ID: 48717
Int'l Code: 2002-032BB
Launch date: June 24, 2002
Source: United States (US)
Launch site: AIR FORCE WESTERN TEST RANGE (AFWTR)

Note: This is SATELLITE DEBRIS
Your satellite tracking list
Your tracking list is empty




NASA's NSSDC Master Catalog

Two Line Element Set (TLE):
1 48717U 02032BA  26254.22276792  .00004593  00000-0  10248-2 0  9998
2 48717  98.7735 253.7051 0007170   6.3375 353.7911 14.57331575287771
Source of the keplerian elements: AFSPC